Data for 06/23/2017

Time Sea-Level Adjusted Pressure Absolute Pressure Temperature Relative Humidity Dew Point   
(mb) (inHg) (mb) (inHg) (C) (F) (%) (C) (F)
00:05 1026 30.3 855 25.25 9 48.1 53 -0 31.9
00:10 1026 30.3 855 25.25 9 48.3 54 0.2 32.4
00:15 1026 30.3 855 25.25 8.8 47.9 55 0.4 32.7
00:20 1026 30.3 855 25.25 8.6 47.5 56 0.4 32.8
00:25 1026 30.3 855 25.25 8.5 47.2 56 0.3 32.6
00:30 1026 30.3 855 25.25 8.3 47 58 0.5 32.9
00:35 1026 30.3 855 25.25 8.2 46.8 58 0.4 32.8
00:40 1026 30.3 855 25.25 8.1 46.6 58 0.4 32.8
00:45 1026 30.3 855 25.25 8 46.5 58 0.3 32.5
00:50 1026 30.3 855 25.25 8 46.4 59 0.5 32.9
00:55 1026 30.3 855 25.25 7.9 46.1 59 0.4 32.7
01:00 1026 30.3 855 25.25 7.9 46.1 59 0.3 32.5
01:05 1026 30.3 855 25.25 7.8 46.1 59 0.4 32.6
01:10 1026 30.3 855 25.25 7.7 45.9 59 0.3 32.5
01:15 1026 30.3 855 25.25 7.6 45.7 60 0.4 32.7
01:20 1026 30.3 855 25.25 7.4 45.3 62 0.6 33.1
01:25 1026 30.3 855 25.25 7 44.6 64 0.6 33.1
01:30 1026 30.3 855 25.25 6.6 44 65 0.5 32.9
01:35 1026 30.3 855 25.25 6.6 43.8 64 0.4 32.6
01:40 1026 30.3 855 25.25 6.7 44.1 63 0.1 32.2
01:45 1026 30.3 855 25.25 6.9 44.5 63 0.3 32.5
01:50 1026 30.3 855 25.25 6.8 44.3 63 0.3 32.6
01:55 1026 30.3 855 25.25 6.7 44 63 0.2 32.4
02:00 1026 30.3 855 25.25 6.8 44.2 62 0.1 32.1
02:05 1026 30.3 855 25.25 6.9 44.4 62 0.1 32.2
02:10 1026 30.3 855 25.25 6.9 44.4 63 0.2 32.4
02:15 1026 30.3 855 25.25 6.7 44.1 63 0.2 32.4
02:20 1026 30.3 855 25.25 6.7 44 63 0.1 32.2
02:25 1026 30.3 855 25.25 6.6 43.9 63 0.1 32.3
02:30 1026 30.3 855 25.25 6.5 43.7 64 0.1 32.2
02:35 1026 30.3 855 25.25 6.4 43.5 64 0.1 32.2
02:40 1026 30.3 855 25.25 6.3 43.4 64 0.1 32.2
02:45 1026 30.3 855 25.25 6.3 43.4 64 0.1 32.1
02:50 1026 30.3 855 25.25 6.3 43.3 64 0 32
02:55 1026 30.3 855 25.25 6.2 43.2 64 0 32
03:00 1026 30.3 855 25.25 6.2 43.1 65 0.1 32.2
03:05 1026 30.3 855 25.25 6.1 43 66 0.1 32.2
03:10 1026 30.3 855 25.25 6 42.8 66 0.1 32.2
03:15 1026 30.3 855 25.25 6 42.8 65 0 32
03:20 1026 30.3 855 25.25 5.9 42.6 66 0.1 32.1
03:25 1026 30.3 855 25.25 5.9 42.5 65 -0.1 31.7
03:30 1026 30.3 855 25.25 5.8 42.4 66 -0.1 31.8
03:35 1026 30.3 855 25.25 5.7 42.3 66 -0.1 31.7
03:40 1026 30.3 855 25.25 5.6 42.1 67 -0.1 31.8
03:45 1026 30.3 855 25.25 5.4 41.8 68 -0 31.9
03:50 1026 30.3 855 25.25 5.3 41.6 67 -0.2 31.6
03:55 1026 30.3 855 25.25 5.3 41.6 67 -0.2 31.6
04:00 1026 30.3 855 25.25 5.4 41.7 67 -0.2 31.6
04:05 1026 30.3 855 25.25 5.4 41.7 67 -0.3 31.5
04:10 1026 30.3 855 25.25 5.4 41.7 67 -0.2 31.6
04:15 1026 30.3 855 25.25 5.3 41.6 67 -0.3 31.4
04:20 1026 30.3 855 25.25 5.2 41.4 67 -0.4 31.3
04:25 1026 30.3 855 25.25 5.3 41.6 66 -0.6 30.9
04:30 1026 30.3 855 25.25 5.6 42 64 -0.7 30.7
04:35 1026 30.3 855 25.25 5.8 42.4 64 -0.5 31.1
04:40 1026 30.3 855 25.25 5.4 41.8 65 -0.7 30.8
04:45 1026 30.3 855 25.25 5.2 41.4 67 -0.4 31.2
04:50 1026 30.3 855 25.25 4.7 40.5 68 -0.8 30.6
04:55 1026 30.3 855 25.25 4.4 39.9 70 -0.5 31.1
05:00 1026 30.3 855 25.25 4.2 39.5 71 -0.6 31
05:05 1026 30.3 855 25.25 4 39.2 72 -0.7 30.8
05:10 1026 30.3 855 25.25 4.1 39.3 70 -0.9 30.4
05:15 1026 30.3 855 25.25 4.3 39.7 69 -0.9 30.4
05:20 1026 30.3 855 25.25 4.7 40.5 66 -1 30.1
05:25 1026 30.3 855 25.25 5 41 65 -1.1 30.1
05:30 1026 30.3 856 25.28 5.1 41.2 65 -0.9 30.4
05:35 1026 30.3 856 25.28 5.4 41.7 64 -0.9 30.5
05:40 1027 30.33 856 25.28 5.4 41.7 64 -0.8 30.5
05:45 1027 30.33 856 25.28 5.7 42.2 64 -0.6 30.8
05:50 1027 30.33 856 25.28 5.9 42.6 62 -0.8 30.6
05:55 1027 30.33 856 25.28 6.3 43.3 61 -0.7 30.7
06:00 1027 30.33 856 25.28 6.5 43.7 59 -0.8 30.5
06:05 1027 30.33 856 25.28 6.6 43.9 59 -0.7 30.7
06:10 1027 30.33 856 25.28 6.9 44.4 58 -0.7 30.8
06:15 1027 30.33 856 25.28 7.2 44.9 57 -0.8 30.5
06:20 1027 30.33 856 25.28 7.4 45.4 59 -0.1 31.9
06:25 1027 30.33 856 25.28 7.5 45.5 58 -0.2 31.6
06:30 1027 30.33 856 25.28 7.9 46.2 55 -0.6 30.9
06:35 1027 30.33 856 25.28 7.9 46.2 55 -0.6 30.9
06:40 1027 30.33 856 25.28 8.3 46.9 53 -0.8 30.6
06:45 1027 30.33 856 25.28 8.8 47.8 52 -0.5 31.1
06:50 1027 30.33 856 25.28 9 48.2 51 -0.5 31.1
06:55 1027 30.33 856 25.28 9.4 48.8 51 -0.1 31.8
07:00 1027 30.33 856 25.28 9.8 49.7 48 -0.6 30.9
07:05 1027 30.33 856 25.28 9.9 49.7 49 -0.3 31.5
07:10 1027 30.33 856 25.28 10.2 50.4 46 -0.8 30.6
07:15 1027 30.33 856 25.28 10.9 51.7 43 -1 30.3
07:20 1027 30.33 857 25.31 11.2 52.1 43 -0.9 30.5
07:25 1027 30.33 856 25.28 10.9 51.6 45 -0.4 31.2
07:30 1027 30.33 856 25.28 11.2 52.2 44 -0.5 31.1
07:35 1027 30.33 856 25.28 11.8 53.2 42 -0.8 30.6
07:40 1027 30.33 856 25.28 12.4 54.2 41 -0.5 31.1
07:45 1027 30.33 856 25.28 11.9 53.5 41 -0.7 30.7
07:50 1027 30.33 856 25.28 12.3 54.1 40 -0.7 30.7
07:55 1027 30.33 856 25.28 12.4 54.3 41 -0.5 31.1
08:00 1027 30.33 856 25.28 12.9 55.3 38 -0.9 30.5
08:05 1027 30.33 856 25.28 13.5 56.4 37 -1 30.3
08:10 1027 30.33 856 25.28 13 55.5 39 -0.7 30.8
08:15 1027 30.33 856 25.28 12.7 54.9 39 -1 30.3
08:20 1027 30.33 856 25.28 12.6 54.8 40 -0.6 31
08:25 1027 30.33 856 25.28 13 55.4 38 -1.1 30
08:30 1027 30.33 856 25.28 13.9 57 36 -0.9 30.5
08:35 1027 30.33 856 25.28 14.2 57.6 35 -0.8 30.5
08:40 1027 30.33 856 25.28 14.3 57.8 35 -0.7 30.7
08:45 1027 30.33 856 25.28 14.3 57.7 35 -1 30.2
08:50 1027 30.33 856 25.28 14.3 57.7 35 -0.9 30.4
08:55 1027 30.33 856 25.28 14.6 58.2 33 -1.4 29.4
09:00 1027 30.33 856 25.28 14.8 58.6 35 -0.6 30.9
09:05 1027 30.33 856 25.28 15.1 59.2 33 -1.1 30
09:10 1027 30.33 856 25.28 15.4 59.6 32 -1.3 29.6
09:15 1027 30.33 856 25.28 15.3 59.5 33 -0.7 30.8
09:20 1027 30.33 856 25.28 14.4 58 33 -1.4 29.5
09:25 1027 30.33 856 25.28 14.4 57.9 32 -1.8 28.7
09:30 1027 30.33 856 25.28 15.1 59.1 33 -0.9 30.3
09:35 1027 30.33 856 25.28 15.3 59.6 31 -1.6 29.1
09:40 1027 30.33 856 25.28 15.8 60.4 30 -1.4 29.4
09:45 1027 30.33 856 25.28 15.9 60.5 33 -0.4 31.2
09:50 1027 30.33 856 25.28 15.2 59.4 33 -0.9 30.3
09:55 1027 30.33 856 25.28 15.5 59.8 31 -1.4 29.5
10:00 1027 30.33 856 25.28 15.7 60.2 30 -1.6 29.2
10:05 1026 30.3 856 25.28 15.5 60 31 -1.4 29.4
10:10 1026 30.3 856 25.28 16.2 61.1 30 -1.3 29.7
10:15 1026 30.3 856 25.28 16.8 62.2 28 -1.7 29
10:20 1026 30.3 856 25.28 16.9 62.5 28 -1.6 29.1
10:25 1026 30.3 856 25.28 16.4 61.4 28 -2 28.4
10:30 1026 30.3 856 25.28 16.3 61.4 25 -3.4 25.8
10:35 1026 30.3 856 25.28 15.9 60.5 29 -2 28.4
10:40 1026 30.3 856 25.28 16.9 62.3 29 -1.3 29.6
10:45 1026 30.3 855 25.25 17.8 64 26 -1.7 28.9
10:50 1026 30.3 855 25.25 16.5 61.8 30 -1 30.1
10:55 1026 30.3 855 25.25 16.8 62.2 28 -1.5 29.3
11:00 1026 30.3 855 25.25 18 64.4 26 -1.6 29
11:05 1026 30.3 855 25.25 18.3 64.9 27 -1.1 30.1
11:10 1026 30.3 855 25.25 18.3 65 25 -1.7 28.9
11:15 1026 30.3 855 25.25 18.4 65.1 25 -2 28.4
11:20 1026 30.3 855 25.25 18.6 65.4 22 -3.4 25.9
11:25 1026 30.3 855 25.25 19.1 66.3 22 -3.3 26
11:30 1026 30.3 855 25.25 18.5 65.2 22 -3.5 25.7
11:35 1026 30.3 855 25.25 18.5 65.2 20 -4.6 23.8
11:40 1026 30.3 855 25.25 17.9 64.3 23 -3.7 25.4
11:45 1026 30.3 855 25.25 18.1 64.7 22 -3.9 25.1
11:50 1026 30.3 855 25.25 19 66.2 19 -5.2 22.6
11:55 1026 30.3 855 25.25 18.6 65.4 18 -6 21.2
12:00 1026 30.3 855 25.25 17.9 64.3 23 -3.2 26.3
12:05 1026 30.3 855 25.25 18.9 66 22 -3.3 26
12:10 1026 30.3 855 25.25 19.6 67.3 19 -4.3 24.2
12:15 1026 30.3 855 25.25 19.9 67.9 17 -5.6 21.8
12:20 1026 30.3 855 25.25 19.2 66.5 19 -4.6 23.7
12:25 1026 30.3 855 25.25 18.3 65 20 -4.6 23.8
12:30 1026 30.3 855 25.25 17.9 64.1 22 -4.2 24.4
12:35 1026 30.3 855 25.25 18.6 65.5 18 -6 21.2
12:40 1026 30.3 855 25.25 19.2 66.6 18 -5.4 22.3
12:45 1026 30.3 855 25.25 19.1 66.4 21 -3.4 25.9
12:50 1026 30.3 855 25.25 18.7 65.7 19 -5.4 22.4
12:55 1026 30.3 855 25.25 18.9 66 20 -4.3 24.3
13:00 1026 30.3 855 25.25 19.2 66.5 18 -5.8 21.6
13:05 1026 30.3 855 25.25 18.4 65.2 21 -4.3 24.3
13:10 1026 30.3 855 25.25 18.8 65.8 18 -5.9 21.4
13:15 1026 30.3 855 25.25 19.6 67.3 20 -4 24.9
13:20 1026 30.3 855 25.25 19.7 67.5 20 -4 24.8
13:25 1026 30.3 855 25.25 19.7 67.5 20 -3.7 25.3
13:30 1026 30.3 855 25.25 19.4 66.9 21 -3.4 25.9
13:35 1026 30.3 855 25.25 19 66.2 21 -3.9 25
13:40 1026 30.3 855 25.25 19.2 66.6 19 -4.7 23.5
13:45 1025 30.27 855 25.25 18.8 65.8 19 -5.1 22.7
13:50 1025 30.27 855 25.25 19.8 67.6 19 -4.3 24.2
13:55 1025 30.27 855 25.25 20.1 68.2 18 -4.6 23.7
14:00 1025 30.27 855 25.25 19.6 67.3 20 -4 24.8
14:05 1025 30.27 855 25.25 19 66.2 21 -3.4 25.8
14:10 1026 30.3 855 25.25 19.8 67.7 18 -5.4 22.3
14:15 1026 30.3 855 25.25 19.9 67.9 20 -3.6 25.5
14:20 1026 30.3 855 25.25 19.6 67.2 20 -4.1 24.6
14:25 1025 30.27 855 25.25 19.8 67.6 20 -3.4 25.9
14:30 1025 30.27 855 25.25 20 68 20 -3.8 25.1
14:35 1025 30.27 855 25.25 20.7 69.3 17 -5.2 22.6
14:40 1025 30.27 855 25.25 20.2 68.3 18 -4.7 23.6
14:45 1025 30.27 855 25.25 19.5 67.2 19 -4.9 23.3
14:50 1025 30.27 855 25.25 20 68.1 18 -5 23.1
14:55 1025 30.27 855 25.25 20.1 68.3 19 -4 24.9
15:00 1025 30.27 855 25.25 20.2 68.3 20 -3.5 25.7
15:05 1025 30.27 855 25.25 19.8 67.6 20 -3.7 25.4
15:10 1025 30.27 855 25.25 19.2 66.5 19 -4.7 23.5
15:15 1025 30.27 855 25.25 19.7 67.5 20 -3.7 25.3
15:20 1025 30.27 855 25.25 20 68 20 -3.5 25.7
15:25 1025 30.27 854 25.22 20.5 68.9 20 -3.4 25.9
15:30 1025 30.27 854 25.22 20.8 69.5 19 -3.4 25.9
15:35 1025 30.27 854 25.22 20.5 68.9 19 -4.1 24.6
15:40 1025 30.27 854 25.22 19.7 67.5 20 -3.5 25.6
15:45 1025 30.27 854 25.22 19.8 67.6 19 -4.7 23.6
15:50 1025 30.27 854 25.22 19.9 67.8 18 -4.8 23.3
15:55 1025 30.27 854 25.22 20.8 69.4 18 -4.3 24.2
16:00 1025 30.27 854 25.22 21.4 70.5 18 -3.9 24.9
16:05 1025 30.27 854 25.22 20.9 69.6 18 -3.8 25.1
16:10 1025 30.27 854 25.22 20.4 68.8 19 -3.9 24.9
16:15 1025 30.27 854 25.22 20.5 69 18 -4.5 23.9
16:20 1025 30.27 854 25.22 21.3 70.4 18 -3.6 25.6
16:25 1025 30.27 854 25.22 21.3 70.3 18 -4.2 24.5
16:30 1025 30.27 854 25.22 21.3 70.3 18 -4.2 24.5
16:35 1025 30.27 854 25.22 20.3 68.6 19 -4.1 24.7
16:40 1025 30.27 854 25.22 19.9 67.8 20 -3.8 25.1
16:45 1025 30.27 854 25.22 19.5 67.1 20 -4.2 24.4
16:50 1025 30.27 854 25.22 20.8 69.4 19 -3.8 25.2
16:55 1025 30.27 854 25.22 21.3 70.4 18 -3.7 25.4
17:00 1025 30.27 854 25.22 21.1 69.9 19 -3.5 25.7
17:05 1025 30.27 854 25.22 20.2 68.4 20 -3.4 25.9
17:10 1025 30.27 854 25.22 20.1 68.1 20 -3.6 25.5
17:15 1025 30.27 854 25.22 19.7 67.5 20 -3.5 25.7
17:20 1025 30.27 854 25.22 19.7 67.4 20 -3.9 24.9
17:25 1025 30.27 854 25.22 19.4 67 20 -3.8 25.2
17:30 1025 30.27 854 25.22 19.9 67.8 19 -4 24.9
17:35 1025 30.27 854 25.22 20.5 68.9 18 -4.2 24.5
17:40 1025 30.27 854 25.22 20.6 69.1 20 -3.1 26.3
17:45 1025 30.27 854 25.22 20.2 68.4 18 -4.9 23.2
17:50 1025 30.27 854 25.22 19.8 67.7 19 -4 24.7
17:55 1025 30.27 854 25.22 20 68 19 -4.5 24
18:00 1025 30.27 854 25.22 20.3 68.5 19 -3.8 25.1
18:05 1025 30.27 854 25.22 20.2 68.4 20 -3.6 25.5
18:10 1025 30.27 854 25.22 20.1 68.1 20 -3.6 25.5
18:15 1025 30.27 854 25.22 20 68 19 -4.3 24.3
18:20 1025 30.27 854 25.22 20.4 68.6 18 -4.6 23.7
18:25 1025 30.27 854 25.22 20.5 68.9 18 -4.7 23.5
18:30 1025 30.27 854 25.22 20.6 69 18 -4.4 24.2
18:35 1025 30.27 854 25.22 19.9 67.8 20 -3.9 25
18:40 1025 30.27 854 25.22 19.6 67.2 20 -4 24.8
18:45 1025 30.27 854 25.22 19.5 67 20 -4 24.8
18:50 1025 30.27 854 25.22 19.4 66.8 20 -4.1 24.6
18:55 1025 30.27 854 25.22 19.2 66.5 21 -3.7 25.3
19:00 1025 30.27 854 25.22 19.1 66.4 20 -3.9 24.9
19:05 1025 30.27 854 25.22 19.1 66.3 22 -3.1 26.4
19:10 1025 30.27 854 25.22 19 66.2 21 -3.9 24.9
19:15 1025 30.27 854 25.22 18.8 65.8 21 -3.7 25.3
19:20 1025 30.27 854 25.22 18.8 65.8 21 -3.8 25.1
19:25 1025 30.27 854 25.22 18.5 65.3 20 -4.6 23.8
19:30 1025 30.27 854 25.22 18.3 65 22 -3.6 25.6
19:35 1025 30.27 854 25.22 18.2 64.8 22 -3.5 25.7
19:40 1025 30.27 854 25.22 18.1 64.6 25 -2.3 27.8
19:45 1025 30.27 854 25.22 17.8 64 25 -2.4 27.6
19:50 1025 30.27 854 25.22 17.6 63.6 26 -2.3 27.9
19:55 1025 30.27 854 25.22 17.5 63.4 26 -2 28.4
20:00 1025 30.27 854 25.22 17.4 63.3 26 -2 28.4
20:05 1025 30.27 854 25.22 17.3 63.1 28 -1.4 29.4
20:10 1025 30.27 854 25.22 17 62.6 32 0.2 32.4
20:15 1025 30.27 854 25.22 16 60.9 36 0.9 33.6
20:20 1025 30.27 854 25.22 15.4 59.7 38 1.3 34.4
20:25 1025 30.27 854 25.22 15.1 59.1 39 1.4 34.5
20:30 1025 30.27 854 25.22 14.9 58.8 40 1.5 34.6
20:35 1025 30.27 854 25.22 14.7 58.5 41 1.6 34.9
20:40 1025 30.27 855 25.25 14.5 58.1 41 1.6 34.9
20:45 1025 30.27 855 25.25 14.5 58 41 1.5 34.6
20:50 1025 30.27 855 25.25 14.4 58 41 1.4 34.4
20:55 1026 30.3 855 25.25 14.4 57.9 41 1.4 34.5
21:00 1026 30.3 855 25.25 14.3 57.7 41 1.4 34.5
21:05 1026 30.3 855 25.25 14.1 57.4 42 1.3 34.4
21:10 1026 30.3 855 25.25 14 57.1 42 1.3 34.4
21:15 1026 30.3 855 25.25 13.9 57 42 1.3 34.4
21:20 1026 30.3 855 25.25 13.8 56.8 43 1.6 34.8
21:25 1026 30.3 855 25.25 13.8 56.8 43 1.4 34.5
21:30 1026 30.3 855 25.25 13.7 56.7 43 1.5 34.7
21:35 1026 30.3 855 25.25 13.7 56.6 43 1.4 34.6
21:40 1026 30.3 855 25.25 13.7 56.7 43 1.5 34.6
21:45 1026 30.3 855 25.25 13.7 56.7 43 1.4 34.6
21:50 1026 30.3 855 25.25 13.7 56.6 43 1.5 34.8
21:55 1026 30.3 855 25.25 13.6 56.5 44 1.6 34.9
22:00 1026 30.3 855 25.25 13.5 56.3 44 1.7 35.1
22:05 1026 30.3 855 25.25 13.4 56.1 45 1.7 35
22:10 1026 30.3 855 25.25 13.3 56 45 1.6 34.9
22:15 1026 30.3 855 25.25 13.3 55.9 45 1.6 34.8
22:20 1026 30.3 855 25.25 13.2 55.8 45 1.5 34.7
22:25 1026 30.3 855 25.25 13.1 55.6 45 1.4 34.6
22:30 1026 30.3 856 25.28 13 55.5 45 1.4 34.5
22:35 1026 30.3 855 25.25 12.9 55.3 45 1.3 34.3
22:40 1026 30.3 855 25.25 13 55.3 45 1.3 34.3
22:45 1026 30.3 856 25.28 12.9 55.2 45 1.3 34.3
22:50 1026 30.3 856 25.28 12.9 55.1 45 1.2 34.2
22:55 1026 30.3 856 25.28 12.7 54.9 45 1.2 34.1
23:00 1026 30.3 856 25.28 12.6 54.8 45 1.2 34.2
23:05 1026 30.3 856 25.28 12.6 54.6 45 1 33.8
23:10 1026 30.3 856 25.28 12.6 54.6 45 1.1 33.9
23:15 1026 30.3 856 25.28 12.5 54.5 45 0.9 33.7
23:20 1026 30.3 856 25.28 12.5 54.5 45 0.9 33.7
23:25 1027 30.33 856 25.28 12.5 54.4 45 0.9 33.6
23:30 1027 30.33 856 25.28 12.4 54.3 45 0.8 33.4
23:35 1026 30.3 856 25.28 12.3 54.2 45 0.9 33.6
23:40 1027 30.33 856 25.28 12.3 54.1 45 0.8 33.4
23:45 1027 30.33 856 25.28 12.2 54 45 0.7 33.3
23:50 1027 30.33 856 25.28 12.2 54 45 0.7 33.3
23:55 1027 30.33 856 25.28 12.2 53.9 45 0.7 33.2
24:00 1027 30.33 856 25.28 12.1 53.8 46 0.8 33.4